VLG71DR EHAM-LEBL

Flight info

Callsign VLG71DR
Flight time N/A
Altitude 33000
Route WOODY N872 MEDIL DCT KOVIN/N0448F350 DCT DUCRA UM728 RESMI UN857 DISAK DCT DIRMO DCT VALKU DCT ATSUP DCT MINSO DCT DEGOL DCT PPG DCT ALBER
Aircraft A321/M-SDE3FGHIRWY/LB1

Departure

Time 2026-04-29 16:58
Airport Amsterdam Airport Schiphol (EHAM)

Arrival

Time N/A
Airport Josep Tarradellas Barcelona-El Prat Airport (LEBL)
Time Latitude Longitude Altitude Speed Heading
2026-04-29 16:22 52.30481 4.76302 -1 ft 0 kts 238°
2026-04-29 16:38 52.30487 4.76317 -1 ft 4 kts 235°
2026-04-29 16:38 52.30504 4.76347 -1 ft 4 kts 198°
2026-04-29 16:39 52.30517 4.76350 -1 ft 1 kts 161°
2026-04-29 16:42 52.30517 4.76351 -1 ft 0 kts 156°
2026-04-29 16:42 52.30514 4.76355 -1 ft 2 kts 145°
2026-04-29 16:42 52.30496 4.76374 -1 ft 5 kts 146°
2026-04-29 16:42 52.30444 4.76427 -1 ft 12 kts 149°
2026-04-29 16:43 52.30378 4.76495 -1 ft 10 kts 147°
2026-04-29 16:43 52.30313 4.76529 -1 ft 12 kts 194°
2026-04-29 16:43 52.30246 4.76395 -1 ft 18 kts 238°
2026-04-29 16:43 52.30169 4.76193 -1 ft 24 kts 238°
2026-04-29 16:44 52.30074 4.75946 -1 ft 26 kts 238°
2026-04-29 16:44 52.29983 4.75709 -1 ft 23 kts 238°
2026-04-29 16:44 52.29905 4.75502 -1 ft 20 kts 237°
2026-04-29 16:44 52.29840 4.75323 -1 ft 17 kts 247°
2026-04-29 16:45 52.29860 4.75163 -1 ft 14 kts 307°
2026-04-29 16:45 52.29923 4.75046 -1 ft 14 kts 311°
2026-04-29 16:45 52.29983 4.74931 -1 ft 15 kts 312°
2026-04-29 16:45 52.30072 4.74777 1 ft 14 kts 307°
2026-04-29 16:46 52.30112 4.74694 6 ft 4 kts 308°
2026-04-29 16:46 52.30115 4.74689 6 ft 0 kts 311°
2026-04-29 16:49 52.30120 4.74680 7 ft 4 kts 311°
2026-04-29 16:49 52.30162 4.74602 10 ft 14 kts 311°
2026-04-29 16:50 52.30266 4.74411 10 ft 28 kts 310°
2026-04-29 16:50 52.30412 4.74202 -1 ft 27 kts 345°
2026-04-29 16:50 52.30591 4.74210 -1 ft 28 kts
2026-04-29 16:50 52.30797 4.74227 -1 ft 30 kts
2026-04-29 16:51 52.30991 4.74247 -1 ft 26 kts
2026-04-29 16:51 52.31190 4.74265 -1 ft 31 kts
2026-04-29 16:51 52.31398 4.74283 -1 ft 28 kts
2026-04-29 16:51 52.31578 4.74301 -1 ft 24 kts
2026-04-29 16:52 52.31731 4.74316 -1 ft 20 kts
2026-04-29 16:52 52.31863 4.74330 -1 ft 19 kts
2026-04-29 16:52 52.31985 4.74332 -1 ft 16 kts 349°
2026-04-29 16:52 52.32031 4.74191 -1 ft 15 kts 274°
2026-04-29 16:53 52.32038 4.74023 -2 ft 16 kts 273°
2026-04-29 16:53 52.32045 4.73813 -1 ft 20 kts 273°
2026-04-29 16:53 52.32054 4.73572 -1 ft 23 kts 273°
2026-04-29 16:53 52.32116 4.73318 -1 ft 25 kts 317°
2026-04-29 16:54 52.32259 4.73116 -1 ft 31 kts 319°
2026-04-29 16:54 52.32422 4.72889 -1 ft 31 kts 319°
2026-04-29 16:54 52.32583 4.72661 -1 ft 31 kts 319°
2026-04-29 16:54 52.32732 4.72421 -1 ft 30 kts 311°
2026-04-29 16:55 52.32836 4.72201 -1 ft 18 kts 278°
2026-04-29 16:55 52.32837 4.71998 -1 ft 18 kts 284°
2026-04-29 16:55 52.32910 4.71835 -1 ft 18 kts 311°
2026-04-29 16:55 52.32993 4.71681 -1 ft 19 kts 311°
2026-04-29 16:56 52.33080 4.71511 -1 ft 19 kts 293°
2026-04-29 16:56 52.33023 4.71343 -1 ft 18 kts 222°
2026-04-29 16:56 52.32928 4.71203 -1 ft 19 kts 221°
2026-04-29 16:56 52.32863 4.71032 -2 ft 19 kts 270°
2026-04-29 16:57 52.32916 4.70903 -3 ft 16 kts 349°
2026-04-29 16:57 52.33132 4.70918 -4 ft 57 kts
2026-04-29 16:57 52.33742 4.70974 0 ft 119 kts
2026-04-29 16:57 52.34386 4.71034 -4 ft 154 kts
2026-04-29 16:58 52.35796 4.71134 619 ft 161 kts
2026-04-29 16:58 52.36924 4.71226 1262 ft 164 kts 10°
2026-04-29 16:58 52.38065 4.71331 1876 ft 164 kts 11°
2026-04-29 16:58 52.39274 4.71476 2116 ft 186 kts 12°
2026-04-29 16:59 52.40578 4.71939 2296 ft 199 kts 31°
2026-04-29 16:59 52.41644 4.73418 2609 ft 205 kts 59°
2026-04-29 16:59 52.42150 4.75566 3263 ft 203 kts 85°
2026-04-29 16:59 52.41973 4.77853 3978 ft 206 kts 111°
2026-04-29 17:00 52.41118 4.79753 4657 ft 214 kts 139°
2026-04-29 17:00 52.39725 4.80740 5322 ft 227 kts 166°
2026-04-29 17:00 52.38146 4.81103 5973 ft 231 kts 165°
2026-04-29 17:00 52.36551 4.81563 6571 ft 235 kts 164°
2026-04-29 17:01 52.34928 4.82061 7179 ft 239 kts 163°
2026-04-29 17:01 52.33285 4.82570 7750 ft 245 kts 164°
2026-04-29 17:01 52.31531 4.83110 7956 ft 268 kts 164°
2026-04-29 17:01 52.29654 4.83671 8418 ft 278 kts 165°
2026-04-29 17:02 52.27758 4.84226 9028 ft 283 kts 165°
2026-04-29 17:02 52.25800 4.84755 9664 ft 289 kts 170°
2026-04-29 17:02 52.23760 4.84792 10290 ft 296 kts 176°
2026-04-29 17:02 52.21666 4.84740 10627 ft 311 kts 176°
2026-04-29 17:03 52.19435 4.84693 10760 ft 332 kts 176°
2026-04-29 17:03 52.17057 4.84646 10898 ft 351 kts 177°
2026-04-29 17:03 52.14553 4.84593 11274 ft 361 kts 177°
2026-04-29 17:03 52.12046 4.84533 11808 ft 365 kts 177°
2026-04-29 17:04 52.09492 4.84473 12363 ft 369 kts 177°
2026-04-29 17:04 52.06907 4.84411 12935 ft 373 kts 178°
2026-04-29 17:04 52.04298 4.84306 13488 ft 378 kts 181°
2026-04-29 17:04 52.01683 4.83588 14060 ft 385 kts 193°
2026-04-29 17:05 51.99153 4.82050 14565 ft 391 kts 204°
2026-04-29 17:05 51.96727 4.80129 15084 ft 394 kts 204°
2026-04-29 17:05 51.94251 4.78178 15617 ft 398 kts 204°
2026-04-29 17:05 51.91745 4.76210 16097 ft 402 kts 204°
2026-04-29 17:06 51.89220 4.74230 16621 ft 405 kts 204°
2026-04-29 17:06 51.86677 4.72240 17141 ft 408 kts 203°
2026-04-29 17:06 51.84104 4.70233 17642 ft 411 kts 204°
2026-04-29 17:06 51.81519 4.68221 18168 ft 414 kts 204°
2026-04-29 17:07 51.78918 4.66203 18679 ft 417 kts 204°
2026-04-29 17:07 51.77185 4.64858 18963 ft 419 kts 203°
2026-04-29 17:07 51.73692 4.62143 19580 ft 422 kts 203°
2026-04-29 17:07 51.71046 4.60090 20073 ft 423 kts 203°
2026-04-29 17:08 51.68382 4.58024 20536 ft 426 kts 203°
2026-04-29 17:08 51.65703 4.55955 20995 ft 428 kts 202°
2026-04-29 17:08 51.63017 4.53883 21449 ft 430 kts 202°
2026-04-29 17:08 51.60313 4.51801 21892 ft 431 kts 202°
2026-04-29 17:09 51.57596 4.49714 22320 ft 434 kts 202°
2026-04-29 17:09 51.54870 4.47620 22759 ft 435 kts 202°
2026-04-29 17:09 51.52135 4.45519 23178 ft 437 kts 202°
2026-04-29 17:09 51.49383 4.43403 23583 ft 439 kts 202°
2026-04-29 17:10 51.46622 4.41282 23968 ft 441 kts 202°
2026-04-29 17:10 51.43880 4.39182 24300 ft 443 kts 202°
2026-04-29 17:10 51.41089 4.37049 24633 ft 445 kts 202°
2026-04-29 17:10 51.38285 4.34911 24947 ft 448 kts 202°
2026-04-29 17:11 51.35465 4.32768 25268 ft 450 kts 202°
2026-04-29 17:11 51.32631 4.30620 25588 ft 452 kts 202°
2026-04-29 17:11 51.30749 4.29195 25791 ft 453 kts 202°
2026-04-29 17:11 51.27894 4.27031 26107 ft 455 kts 202°
2026-04-29 17:12 51.25026 4.24854 26426 ft 457 kts 202°
2026-04-29 17:12 51.22143 4.22669 26723 ft 460 kts 202°
2026-04-29 17:12 51.18306 4.19762 27117 ft 463 kts 202°